Temperature
6 6 6 6 6 6 6 5 5 5 5 5 5 5 5 5 5 5 5 5 4 4 4 4 4 4 4 4 4 4 4 4 4 4 4 3 3 3 3 3 3 3 3
6 5 5 5 5 5 5 5 5 5 5 5 5 5 5 4 4 4 4 4 4 4 4 4 4 4 4 4 3 3 3 3 3 3 3 3 3 3 3 3 2 2 2
5 5 5 5 5 5 5 5 5 5 5 4 4 4 4 4 4 4 4 4 4 4 4 3 3 3 3 3 3 3 3 3 3 2 2 2 2 2 2 2 2 2 2
5 5 5 5 4 5 5 5 4 4 4 4 4 4 4 4 4 4 4 3 3 3 3 3 3 3 3 3 3 3 2 2 2 2 2 2 2 2 1 1 1 1 1
5 5 4 4 4 4 4 4 4 4 4 4 4 4 4 3 3 3 3 3 3 3 3 3 2 2 2 2 2 2 2 2 2 1 1 1 1 1 1 1 0 0 0
4 4 4 4 4 4 4 4 4 4 4 3 3 3 3 3 3 3 3 2 2 2 2 2 2 2 2 2 2 2 1 1 1 1 1 1 1 0 0 -0 -0 -0 -0
4 4 4 4 4 4 4 4 3 3 3 3 3 3 3 3 2 2 2 2 2 2 2 2 2 1 1 1 1 1 1 1 0 0 0 0 0 0 -0 -0 -1 -1 -1
3 3 3 3 3 3 3 3 3 3 3 3 3 3 2 2 2 2 2 2 2 2 1 1 1 1 1 1 1 0 0 0 -0 -0 -0 -0 -0 -1 -1 -1 -1 -1 -1
3 3 3 3 3 3 3 3 3 2 2 2 2 2 2 2 2 1 1 1 1 1 1 1 1 1 0 -0 -0 -0 -0 -0 -0 -1 -1 -1 -1 -1 -1 -2 -2 -2 -2
3 3 3 3 3 3 3 2 2 2 2 2 2 2 1 1 1 1 1 1 1 1 1 0 0 0 -0 -1 -1 -1 -1 -1 -1 -1 -1 -1 -1 -2 -2 -2 -2 -2 -2
2 2 2 2 2 2 2 2 2 2 2 1 1 1 1 1 1 0 0 0 0 0 -0 -0 -0 -0 -1 -1 -1 -1 -1 -1 -1 -2 -2 -2 -2 -2 -2 -2 -3 -3 -3
2 2 2 2 2 2 2 2 1 1 1 1 1 1 0 0 -0 -0 -0 -0 -0 -1 -1 -1 -1 -1 -1 -1 -1 -2 -2 -2 -2 -2 -2 -2 -2 -2 -3 -3 -3 -3 -3
1 1 1 1 1 1 1 1 1 1 0 0 0 -0 -0 -0 -1 -1 -1 -1 -1 -1 -1 -1 -1 -2 -2 -2 -2 -2 -2 -3 -3 -3 -3 -3 -3 -3 -3 -3 -3 -3 -4
1 1 1 1 1 1 0 0 0 -0 -0 -0 -0 -0 -1 -1 -1 -1 -1 -1 -1 -1 -2 -2 -2 -2 -2 -2 -2 -3 -3 -3 -3 -3 -3 -3 -3 -4 -4 -4 -4 -4 -4
0 0 0 0 -0 -0 -0 -0 -1 -1 -1 -1 -1 -1 -1 -1 -1 -1 -1 -2 -2 -2 -2 -2 -2 -2 -2 -3 -3 -3 -3 -3 -4 -4 -4 -4 -4 -4 -4 -4 -4 -4 -4
-0 -0 -0 -1 -1 -1 -1 -1 -1 -1 -1 -1 -1 -2 -2 -2 -2 -2 -2 -2 -2 -2 -3 -3 -3 -3 -3 -3 -3 -4 -4 -4 -4 -4 -4 -4 -4 -4 -4 -4 -5 -5 -5
-1 -1 -1 -1 -1 -2 -2 -2 -2 -2 -2 -2 -2 -2 -2 -2 -2 -2 -2 -3 -3 -3 -3 -3 -3 -4 -4 -4 -4 -4 -4 -4 -4 -4 -4 -5 -5 -5 -5 -5 -5 -5 -5
-2 -2 -2 -2 -2 -2 -2 -2 -2 -2 -3 -3 -3 -3 -3 -3 -3 -3 -3 -3 -3 -3 -4 -4 -4 -4 -4 -5 -5 -5 -5 -5 -5 -5 -5 -5 -5 -5 -5 -5 -6 -6 -6
-2 -2 -3 -3 -3 -3 -3 -3 -3 -3 -3 -3 -3 -3 -3 -3 -3 -3 -3 -4 -4 -4 -4 -4 -4 -5 -5 -5 -5 -5 -5 -5 -5 -5 -5 -5 -5 -6 -6 -6 -6 -6 -6
-3 -3 -3 -3 -3 -4 -4 -4 -4 -4 -4 -4 -4 -4 -4 -4 -4 -4 -4 -4 -4 -5 -5 -5 -5 -5 -5 -5 -5 -5 -5 -5 -5 -6 -6 -6 -6 -6 -6 -6 -7 -7 -7
-4 -4 -4 -4 -4 -4 -4 -4 -4 -4 -4 -5 -5 -5 -5 -5 -5 -5 -5 -5 -5 -5 -5 -5 -5 -5 -5 -5 -5 -6 -6 -6 -6 -6 -6 -6 -6 -7 -7 -7 -7 -7 -7
-4 -4 -4 -5 -5 -5 -5 -5 -5 -5 -5 -5 -5 -6 -5 -5 -5 -5 -5 -5 -6 -6 -6 -6 -6 -6 -6 -6 -6 -6 -6 -6 -6 -6 -7 -7 -7 -7 -7 -7 -7 -7 -7
-5 -5 -5 -5 -5 -5 -5 -5 -6 -6 -6 -6 -6 -6 -6 -6 -6 -6 -6 -6 -6 -6 -6 -6 -6 -6 -6 -6 -6 -6 -6 -6 -7 -7 -7 -7 -7 -7 -7 -7 -7 -8 -8
-6 -6 -6 -6 -6 -6 -6 -6 -6 -6 -6 -6 -7 -7 -7 -7 -7 -7 -7 -7 -7 -7 -7 -7 -7 -7 -7 -7 -7 -7 -7 -7 -7 -7 -7 -7 -7 -8 -8 -8 -8 -8 -8
-6 -6 -6 -6 -6 -7 -7 -7 -7 -7 -7 -7 -7 -7 -7 -7 -7 -7 -7 -7 -7 -7 -7 -7 -7 -7 -7 -7 -7 -7 -7 -7 -7 -7 -7 -8 -8 -8 -8 -8 -8 -8 -8
-7 -7 -7 -7 -7 -7 -7 -7 -7 -7 -7 -7 -7 -7 -7 -7 -7 -7 -7 -7 -7 -7 -7 -7 -7 -7 -7 -7 -7 -7 -7 -7 -8 -8 -8 -8 -8 -8 -8 -8 -9 -9 -9
Wind_Speed
3 2 2 3 3 3 4 4 4 4 4 4 4 4 4 3 3 4 4 4 5 4 4 4 4 3 2 2 2 2 2 2 3 3 2 2 2 3 4 6 6 7 8
3 3 3 3 3 3 4 4 4 4 4 4 4 4 4 3 3 4 5 5 5 5 4 4 4 3 3 2 2 2 2 2 3 3 2 2 2 3 4 4 5 6 7
3 3 3 3 3 4 4 3 4 4 4 3 4 4 4 4 4 4 4 5 5 5 5 5 4 4 4 3 3 3 3 2 2 2 3 2 1 2 2 3 4 5 7
3 3 4 3 3 4 4 4 4 4 4 4 4 4 4 4 4 4 4 4 4 4 4 4 5 5 5 5 4 4 3 2 2 2 2 2 2 2 2 3 4 3 4
3 4 4 4 3 3 3 3 4 4 4 4 4 4 3 3 4 4 4 4 4 4 4 4 4 5 5 5 4 4 4 3 2 2 2 2 2 2 3 2 4 4 5
3 4 4 3 3 3 3 3 3 3 3 3 4 4 4 3 4 5 4 4 3 4 4 3 3 4 4 5 5 5 5 4 4 3 3 3 4 4 3 3 3 4 5
3 4 3 3 3 3 3 3 3 3 3 3 3 4 4 5 5 5 5 3 3 3 4 3 3 3 4 4 4 4 4 6 6 5 5 6 5 5 4 4 4 5 6
4 4 4 4 3 3 3 3 3 3 3 3 3 4 4 5 6 6 5 3 3 3 3 4 4 3 4 4 4 4 4 4 5 4 5 5 5 4 5 5 5 4 4
4 4 4 4 4 3 4 3 3 3 3 3 3 4 4 4 5 6 5 3 3 3 3 3 4 4 5 5 4 4 4 4 4 5 6 6 6 5 4 1 2 3 5
4 4 4 4 5 5 4 3 2 3 3 3 3 4 4 4 5 5 5 3 3 2 2 3 4 4 5 5 4 4 4 4 3 2 3 3 3 4 4 3 4 4 4
3 3 3 4 4 4 3 2 2 2 2 3 3 2 3 4 4 5 5 3 3 3 2 2 3 5 5 5 4 4 5 3 2 2 2 2 2 2 3 3 3 4 4
2 3 3 3 3 3 3 3 3 3 3 2 2 2 2 3 3 4 5 4 3 3 3 3 3 4 4 4 3 4 4 2 1 2 2 2 3 3 3 3 4 5 5
2 3 3 3 3 3 4 4 3 3 3 2 2 3 2 2 2 4 4 4 3 2 3 4 4 3 2 2 3 3 2 2 2 2 3 3 3 3 2 2 3 3 4
3 3 3 3 3 3 2 3 3 4 3 3 3 2 2 2 2 2 2 2 3 2 2 2 2 1 1 2 2 2 2 2 2 3 3 3 2 2 2 2 2 2 2
3 3 2 2 3 2 2 2 3 3 4 4 3 3 3 3 4 4 3 3 3 3 2 1 1 1 1 1 1 1 1 2 2 2 2 2 2 2 2 2 2 2 2
3 2 2 2 2 2 2 1 1 0 1 2 2 1 2 2 3 4 4 4 4 3 2 2 2 2 2 2 2 2 2 2 2 2 2 2 2 2 2 2 2 2 3
3 3 2 2 2 2 3 3 2 2 2 2 1 1 1 1 2 3 3 3 4 4 2 2 2 3 2 2 2 2 2 2 2 2 2 2 2 2 2 2 2 2 3
2 2 2 2 2 2 2 2 2 2 1 1 1 1 1 1 1 2 3 2 2 1 1 2 2 2 2 2 2 2 2 1 1 1 1 1 2 2 2 3 3 3 3
2 2 2 2 2 2 2 2 2 2 2 1 1 0 0 1 1 2 2 2 2 1 1 1 1 2 2 2 2 2 2 2 1 1 2 2 2 2 2 3 3 4 3
1 1 1 2 2 2 2 2 2 2 2 1 1 0 1 1 1 1 1 1 1 1 1 1 1 1 2 2 2 1 1 2 2 2 2 2 2 2 3 4 3 3 3
1 1 2 1 2 2 2 2 2 2 1 1 1 1 0 0 1 0 0 0 1 1 1 1 1 1 1 1 1 2 2 2 2 2 3 3 3 3 3 3 3 3 3
1 1 1 1 1 1 1 1 1 1 1 1 0 0 0 1 0 0 0 0 0 0 0 1 1 1 1 2 2 2 2 3 3 3 3 3 3 3 3 3 3 3 3
1 1 1 1 1 2 2 1 1 1 1 1 0 0 1 1 0 0 0 0 0 0 0 1 1 1 2 2 3 3 3 4 4 3 3 3 3 3 3 3 3 3 3
1 1 1 1 1 1 1 1 1 1 1 1 0 0 0 0 0 0 1 1 1 0 0 1 1 2 3 3 4 4 5 5 5 5 5 4 3 3 3 3 3 4 4
2 2 2 1 1 1 1 1 1 1 0 0 0 0 0 0 0 1 1 1 1 1 1 1 1 2 3 4 4 5 5 6 6 5 5 4 3 4 3 3 3 3 4
2 2 2 1 1 1 1 1 0 0 0 0 0 0 0 0 1 1 1 1 1 1 1 1 2 3 4 4 5 5 5 6 6 6 4 3 3 3 3 3 4 3 4
Wind_Direction
201 206 204 213 215 206 206 209 204 200 197 196 203 202 199 196 194 188 192 184 187 195 196 189 199 193 200 206 194 193 195 190 233 264 254 258 232 239 260 256 258 258 262
206 208 214 218 215 208 212 213 200 196 199 199 197 196 197 198 199 193 193 192 189 194 197 191 205 200 199 200 194 198 207 206 212 246 267 261 256 248 243 251 265 266 267
201 202 213 219 218 217 215 208 202 198 197 198 193 196 202 202 199 200 196 196 196 200 199 199 205 194 207 211 205 204 210 220 208 222 257 272 282 276 266 275 276 273 274
205 203 211 221 224 219 213 207 205 198 194 197 201 204 205 203 201 199 199 198 198 202 202 204 207 206 207 204 209 210 205 205 201 208 255 279 280 281 257 278 291 284 284
210 212 219 225 224 213 204 205 200 193 197 194 195 201 203 205 205 197 199 200 201 204 204 207 213 214 216 211 215 208 196 202 210 224 251 273 276 281 263 266 279 294 286
217 223 224 215 208 205 203 196 194 192 191 190 197 197 199 216 216 207 205 201 203 204 207 211 216 219 223 225 231 227 213 210 216 227 248 255 260 259 262 271 278 293 286
225 226 217 207 203 203 200 190 194 195 190 196 203 199 207 217 214 213 208 197 201 208 207 207 221 223 224 214 229 239 239 244 237 226 233 245 247 244 242 261 264 272 277
228 226 219 209 208 202 195 201 203 197 197 206 211 208 209 218 214 212 207 197 195 205 210 208 209 222 223 214 208 220 234 245 246 240 232 240 244 237 233 244 257 275 289
233 227 217 206 203 198 200 204 204 199 206 212 209 203 206 217 212 208 203 192 197 213 216 212 211 218 232 230 215 217 234 253 263 257 266 271 274 271 263 256 272 284 289
238 231 217 204 198 203 204 202 202 198 208 204 205 203 204 213 211 206 199 184 195 214 224 224 229 230 235 232 218 214 232 247 248 274 291 293 289 273 258 237 232 257 282
239 229 215 206 203 201 192 190 181 178 179 189 196 204 206 208 204 202 199 189 193 201 219 236 241 241 242 239 234 220 238 249 231 238 257 272 284 272 261 261 247 240 255
224 215 214 208 201 193 177 176 171 164 167 182 188 199 213 212 205 205 205 203 198 197 218 229 239 248 243 242 243 245 248 250 227 237 252 261 266 269 270 271 269 262 252
214 214 212 207 198 189 185 180 174 173 180 194 195 205 212 215 211 210 210 211 216 217 220 228 240 248 248 245 247 245 233 226 231 240 251 261 261 259 266 287 295 295 294
209 207 194 188 188 182 189 185 183 187 190 198 202 207 212 214 217 212 211 209 213 222 224 220 229 238 240 234 241 251 238 226 233 239 252 261 268 268 275 284 291 300 307
202 194 186 183 177 174 181 200 201 207 205 201 207 201 199 217 223 217 212 211 211 215 208 203 217 228 230 240 240 239 244 245 250 252 253 262 272 278 285 289 284 294 283
193 184 184 187 179 170 163 111 36 160 185 192 197 204 228 229 223 217 215 215 214 205 194 194 213 220 225 228 237 250 250 245 245 244 240 237 250 258 274 292 290 277 277
190 187 179 177 179 177 171 164 136 55 69 92 111 137 152 187 203 209 207 201 196 178 180 202 219 227 231 231 238 247 258 264 264 247 240 236 246 257 268 271 274 279 276
179 183 176 180 180 179 176 175 167 155 134 27 28 133 157 173 199 196 181 158 174 179 201 207 213 219 225 231 237 246 253 266 269 261 252 245 247 257 265 265 263 265 274
170 173 167 165 169 168 157 149 147 148 149 137 38 32 97 92 103 123 139 147 178 202 210 210 209 210 221 231 236 242 248 253 255 259 256 253 249 255 263 265 268 282 289
168 152 135 149 151 147 142 144 147 149 151 162 183 322 30 60 78 78 88 133 179 206 214 216 223 220 215 216 223 230 246 255 256 259 264 263 256 251 257 263 268 270 270
122 126 94 115 145 146 145 153 158 159 163 175 212 248 227 107 162 163 163 193 207 218 226 229 225 226 227 220 214 224 237 249 255 256 257 259 262 264 263 262 266 267 267
111 120 126 134 126 128 128 135 148 158 166 165 107 304 146 61 120 154 195 266 295 289 267 252 237 236 227 225 227 227 234 244 248 246 249 256 263 270 273 269 268 270 267
99 105 94 85 87 117 102 107 135 147 149 147 139 57 38 36 50 81 343 325 341 341 287 229 239 251 250 243 235 224 231 241 246 244 246 252 256 260 262 264 268 273 273
80 87 87 84 85 98 108 110 109 117 118 129 139 114 22 14 332 334 344 349 349 340 308 258 240 248 261 261 254 249 247 251 252 245 235 237 243 250 252 255 263 265 270
63 65 69 78 91 99 105 101 94 90 98 125 138 24 19 15 331 329 335 334 327 310 305 299 270 261 266 267 265 262 263 265 265 256 241 226 235 240 243 251 260 270 273
52 53 52 55 65 84 108 119 117 103 82 342 359 327 248 236 266 275 289 299 299 286 282 280 289 291 291 282 277 276 273 271 274 275 255 226 229 239 244 248 256 260 268
Height
1475 1476 1476 1477 1477 1477 1478 1478 1479 1479 1480 1481 1482 1482 1482 1483 1484 1484 1485 1487 1488 1489 1490 1491 1493 1494 1496 1497 1498 1499 1499 1500 1499 1499 1501 1501 1501 1501 1502 1502 1502 1501 1501
1472 1472 1473 1473 1473 1474 1474 1475 1475 1476 1477 1478 1478 1479 1479 1480 1480 1481 1482 1483 1484 1485 1486 1488 1489 1490 1492 1493 1494 1494 1495 1496 1496 1495 1496 1496 1497 1497 1497 1497 1497 1496 1496
1469 1469 1469 1469 1470 1470 1471 1471 1472 1473 1473 1474 1475 1475 1476 1477 1477 1478 1479 1479 1480 1481 1483 1484 1485 1486 1487 1488 1489 1490 1491 1492 1492 1492 1491 1492 1492 1492 1492 1492 1491 1491 1491
1465 1465 1466 1466 1466 1467 1467 1468 1469 1469 1470 1471 1472 1472 1473 1474 1474 1475 1475 1476 1477 1478 1479 1481 1482 1483 1483 1484 1485 1486 1487 1487 1487 1487 1487 1487 1487 1487 1487 1486 1485 1485 1485
1462 1462 1462 1463 1463 1464 1464 1465 1465 1466 1467 1468 1468 1469 1470 1470 1471 1472 1472 1473 1474 1474 1476 1477 1478 1479 1479 1480 1481 1482 1482 1482 1483 1483 1482 1482 1482 1482 1482 1481 1481 1480 1479
1458 1458 1459 1459 1460 1460 1461 1461 1462 1462 1463 1464 1464 1465 1466 1467 1468 1469 1469 1470 1470 1471 1472 1473 1474 1475 1475 1476 1477 1478 1478 1478 1478 1478 1478 1478 1478 1478 1478 1477 1476 1475 1473
1454 1454 1455 1455 1456 1456 1457 1458 1458 1459 1459 1460 1461 1461 1462 1463 1464 1465 1466 1467 1467 1468 1468 1469 1470 1471 1471 1472 1472 1473 1473 1474 1475 1475 1474 1474 1473 1473 1473 1472 1471 1470 1469
1450 1450 1451 1451 1452 1453 1453 1454 1454 1455 1456 1456 1457 1458 1459 1460 1461 1462 1462 1463 1464 1464 1464 1465 1466 1466 1467 1468 1468 1468 1468 1469 1470 1470 1470 1469 1469 1469 1468 1468 1466 1465 1464
1446 1446 1447 1448 1448 1448 1449 1450 1451 1451 1452 1452 1453 1454 1455 1456 1457 1458 1459 1459 1460 1460 1460 1461 1462 1462 1463 1463 1464 1464 1464 1464 1465 1465 1465 1465 1465 1464 1464 1463 1461 1460 1458
1442 1443 1443 1444 1444 1444 1445 1446 1447 1448 1448 1449 1449 1451 1452 1453 1454 1455 1455 1456 1456 1456 1457 1457 1458 1458 1459 1459 1459 1459 1459 1459 1460 1460 1460 1460 1460 1459 1459 1458 1457 1456 1453
1439 1439 1439 1440 1440 1441 1442 1443 1443 1444 1445 1445 1446 1447 1448 1449 1450 1451 1452 1452 1452 1453 1453 1453 1454 1454 1454 1455 1455 1455 1455 1455 1455 1455 1455 1455 1454 1454 1453 1453 1452 1451 1450
1435 1435 1435 1436 1437 1437 1438 1439 1440 1440 1441 1442 1442 1443 1445 1446 1447 1447 1448 1449 1449 1449 1449 1449 1450 1450 1450 1451 1451 1451 1451 1451 1451 1450 1450 1450 1449 1449 1448 1448 1447 1446 1446
1431 1431 1432 1432 1433 1434 1435 1435 1436 1437 1437 1438 1439 1440 1441 1442 1443 1444 1444 1445 1445 1446 1445 1446 1446 1446 1446 1446 1447 1447 1447 1447 1446 1446 1445 1445 1445 1444 1444 1443 1442 1441 1441
1427 1427 1428 1428 1429 1430 1431 1432 1433 1433 1434 1435 1436 1436 1437 1438 1439 1440 1440 1441 1442 1442 1442 1442 1442 1442 1442 1442 1442 1442 1442 1442 1442 1442 1441 1441 1440 1440 1439 1438 1437 1437 1436
1423 1423 1424 1425 1425 1427 1428 1429 1430 1431 1432 1432 1433 1434 1434 1434 1435 1437 1437 1438 1438 1438 1438 1438 1438 1439 1438 1439 1439 1438 1438 1438 1438 1437 1437 1436 1436 1436 1435 1434 1433 1432 1431
1419 1419 1420 1421 1422 1423 1424 1426 1427 1428 1429 1430 1430 1431 1431 1432 1433 1433 1434 1434 1435 1435 1435 1435 1435 1435 1435 1435 1435 1434 1434 1434 1434 1433 1433 1433 1432 1431 1431 1430 1429 1429 1427
1416 1416 1417 1418 1419 1420 1421 1422 1423 1424 1425 1426 1427 1427 1428 1429 1429 1430 1430 1431 1431 1431 1431 1431 1431 1431 1432 1431 1431 1431 1431 1431 1430 1430 1429 1429 1428 1428 1427 1426 1426 1425 1424
1413 1414 1414 1415 1416 1417 1418 1419 1420 1421 1422 1422 1424 1424 1425 1425 1426 1426 1427 1427 1427 1428 1428 1428 1427 1428 1428 1428 1428 1428 1427 1427 1427 1426 1425 1425 1425 1424 1423 1423 1422 1421 1420
1410 1411 1412 1413 1414 1415 1416 1417 1418 1419 1419 1420 1420 1421 1422 1422 1422 1423 1423 1424 1424 1424 1424 1424 1424 1424 1424 1424 1424 1424 1424 1423 1423 1423 1422 1421 1421 1420 1420 1419 1418 1418 1417
1408 1409 1410 1411 1412 1413 1414 1415 1415 1416 1417 1417 1418 1418 1419 1419 1419 1420 1420 1421 1421 1421 1421 1421 1421 1421 1421 1421 1421 1421 1421 1420 1420 1419 1419 1418 1418 1417 1416 1416 1415 1414 1413
1406 1407 1408 1409 1409 1410 1411 1412 1413 1414 1415 1415 1416 1416 1417 1417 1417 1417 1418 1418 1418 1419 1419 1418 1418 1418 1418 1418 1418 1418 1417 1417 1416 1416 1415 1415 1414 1413 1413 1412 1412 1411 1410
1405 1405 1406 1407 1407 1408 1409 1410 1412 1412 1413 1413 1413 1414 1414 1415 1415 1415 1415 1416 1416 1416 1416 1416 1415 1415 1415 1415 1415 1415 1414 1414 1413 1413 1412 1411 1411 1410 1410 1409 1408 1407 1407
1403 1404 1404 1405 1406 1407 1408 1409 1409 1410 1411 1411 1411 1412 1412 1412 1413 1413 1413 1413 1413 1413 1413 1413 1412 1412 1412 1412 1412 1412 1411 1411 1410 1410 1409 1408 1408 1407 1406 1406 1405 1404 1403
1402 1403 1403 1404 1405 1405 1406 1407 1407 1408 1408 1409 1409 1410 1410 1410 1410 1410 1410 1410 1410 1410 1410 1410 1410 1409 1409 1409 1409 1409 1408 1408 1407 1407 1406 1405 1405 1404 1403 1403 1402 1401 1401
1401 1402 1402 1403 1403 1404 1405 1405 1406 1406 1406 1407 1407 1407 1408 1408 1408 1408 1408 1408 1408 1408 1408 1407 1407 1407 1407 1406 1406 1406 1405 1405 1405 1404 1403 1403 1402 1401 1401 1400 1399 1399 1398
1401 1401 1401 1402 1402 1403 1403 1403 1404 1404 1404 1405 1405 1405 1406 1406 1406 1406 1406 1406 1406 1406 1405 1405 1405 1404 1404 1404 1403 1403 1403 1402 1402 1401 1401 1400 1399 1399 1398 1397 1397 1396 1396